Weather in Goreme

Turkey     38°38′39″N   34°49′50″E
temp.,
°C
wind,
m/s
gust,
m/s
humid.,
%
clouds,
%
prec.,
mm/h
press.,
hPa
HPBL,
m
9 may, sun
sun900:00+15ne22705 0.2 101226
03:00+14ene01760 0.2 101110
06:00+13w22764 0.1 101322
09:00+16nw556592 0.1 10151010
12:00+12n6757100 0.2 1019856
15:00+16n774390 0.2 10171378
18:00+11nne99604 0.0 1020852
21:00+8ene37630 0.0 1022355
10 may, mon
mon1000:00+7ne24650 0.0 102394
03:00+5ne22720 0.0 102338
06:00+3ne22731 0.0 102462
09:00+7ne34410 0.0 1023745
12:00+13nne55230 0.0 10201201
15:00+15nne55240 0.0 10171387
18:00+14nne66310 0.0 10161198
21:00+9nne34510 0.0 1018112
11 may, tue
tue1100:00+7ne22610 0.0 101925
03:00+5nne11670 0.0 101812
06:00+5ne11680 0.0 101911
09:00+10ne11420 0.0 1017520
12:00+15nne11290 0.0 10151010
15:00+19wnw11230 0.0 10121408
18:00+19nnw11220 0.0 10111465
21:00+14ene22370 0.0 101217
12 may, wed
wed1200:00+12ene22420 0.0 101212
03:00+11e22434 0.0 101210
06:00+11e22441 0.0 101211
09:00+18ese12305 0.0 1011421
12:00+23w24200 0.0 10102186
15:00+25w35160 0.0 10082817
18:00+25wnw34170 0.0 10081370
21:00+19ese22292 0.0 100913
13 may, thu
thu1300:00+16s113947 0.0 101011
03:00+15se2242100 0.0 101011
06:00+15se224487 0.0 101111
09:00+21sse12285 0.0 1011491
12:00+26sw13210 0.0 10102387
15:00+28w44170 0.0 10093074
18:00+27wnw45181 0.0 10091149
21:00+21sse32280 0.0 101117